Back to catalog

STARLINK-35533

AliveCommunicationsVLEO
NORAD 66429·PAYLOAD·🇺🇸 United States

Launched Nov 11, 2025 from Cape Canaveral Space Force Station

Loading…

Next Passes (next 24 hours)

TLE

FreshSource: CelesTrak SupGP

Epoch: Sep 14, 2026, 22:51 UTC

1 66429C 25259H   26257.95256944  .00026406  00000+0  95658-3 0  2576
2 66429  43.0012 285.3547 0001316 263.7313 259.3502 15.27560554    16

Track STARLINK-35533 in real time with AllMySat

Download on the App Store